Time,TemperatureF,DewpointF,PressureIn,WindDirection,WindDirectionDegrees,WindSpeedMPH,WindSpeedGustMPH,Humidity,HourlyPrecipIn,Conditions,Clouds,dailyrainin,SoftwareType,DateUTC
2013-10-02 00:00:00,48.0,-99.9,-100.00,WNW,283,3.0,4.0,-999,-99.99,,,-99.99,,2013-10-02 07:00:00,
2013-10-02 00:42:00,47.0,-99.9,-100.00,West,274,2.0,4.0,-999,-99.99,,,-99.99,,2013-10-02 07:42:00,
2013-10-02 00:52:00,48.0,-99.9,-100.00,WNW,283,3.0,4.0,-999,-99.99,,,-99.99,,2013-10-02 07:52:00,
2013-10-02 01:42:00,47.0,-99.9,-100.00,WSW,245,0.0,4.0,-999,-99.99,,,-99.99,,2013-10-02 08:42:00,
2013-10-02 01:52:00,47.0,-99.9,-100.00,WSW,245,0.0,4.0,-999,-99.99,,,-99.99,,2013-10-02 08:52:00,
2013-10-02 02:22:00,47.0,-99.9,-100.00,WSW,245,3.0,3.0,-999,-99.99,,,-99.99,,2013-10-02 09:22:00,
2013-10-02 02:43:00,46.0,-99.9,-100.00,West,266,3.0,3.0,-999,-99.99,,,-99.99,,2013-10-02 09:43:00,
2013-10-02 02:54:00,46.0,-99.9,-100.00,West,266,3.0,3.0,-999,-99.99,,,-99.99,,2013-10-02 09:54:00,
2013-10-02 03:00:00,47.0,-99.9,-100.00,SSW,196,1.0,4.0,-999,-99.99,,,-99.99,,2013-10-02 10:00:00,
2013-10-02 03:12:00,45.0,-99.9,-100.00,SW,222,4.0,5.0,-999,-99.99,,,-99.99,,2013-10-02 10:12:00,
2013-10-02 03:23:00,45.0,-99.9,-100.00,SW,222,4.0,5.0,-999,-99.99,,,-99.99,,2013-10-02 10:23:00,
2013-10-02 03:53:00,47.0,-99.9,-100.00,SSW,196,1.0,4.0,-999,-99.99,,,-99.99,,2013-10-02 10:53:00,
2013-10-02 04:22:00,47.0,-99.9,-100.00,SSW,210,2.0,4.0,-999,-99.99,,,-99.99,,2013-10-02 11:22:00,
2013-10-02 04:43:00,46.0,-99.9,-100.00,WSW,245,2.0,2.0,-999,-99.99,,,-99.99,,2013-10-02 11:43:00,
2013-10-02 04:52:00,46.0,-99.9,-100.00,WSW,245,2.0,2.0,-999,-99.99,,,-99.99,,2013-10-02 11:52:00,
2013-10-02 05:42:00,47.0,-99.9,-100.00,South,182,2.0,2.0,-999,-99.99,,,-99.99,,2013-10-02 12:42:00,
2013-10-02 05:52:00,47.0,-99.9,-100.00,South,182,2.0,2.0,-999,-99.99,,,-99.99,,2013-10-02 12:52:00,
2013-10-02 06:22:00,47.0,-99.9,-100.00,West,267,1.0,2.0,-999,-99.99,,,-99.99,,2013-10-02 13:22:00,
2013-10-02 06:42:00,47.0,-99.9,-100.00,SW,215,0.0,1.0,-999,-99.99,,,-99.99,,2013-10-02 13:42:00,
2013-10-02 06:52:00,47.0,-99.9,-100.00,SW,215,0.0,1.0,-999,-99.99,,,-99.99,,2013-10-02 13:52:00,
2013-10-02 07:22:00,48.0,-99.9,-100.00,West,269,1.0,2.0,-999,-99.99,,,-99.99,,2013-10-02 14:22:00,
2013-10-02 07:42:00,48.0,-99.9,-100.00,East,79,0.0,1.0,-999,-99.99,,,-99.99,,2013-10-02 14:42:00,
2013-10-02 07:52:00,48.0,-99.9,-100.00,East,79,0.0,1.0,-999,-99.99,,,-99.99,,2013-10-02 14:52:00,
2013-10-02 08:10:00,48.0,-99.9,-100.00,West,272,1.0,2.0,-999,-99.99,,,-99.99,,2013-10-02 15:10:00,
2013-10-02 08:43:00,48.0,-99.9,-100.00,West,270,2.0,3.0,-999,-99.99,,,-99.99,,2013-10-02 15:43:00,
2013-10-02 08:54:00,48.0,-99.9,-100.00,West,272,1.0,2.0,-999,-99.99,,,-99.99,,2013-10-02 15:54:00,
2013-10-02 09:03:00,48.0,-99.9,-100.00,West,272,1.0,2.0,-999,-99.99,,,-99.99,,2013-10-02 16:03:00,
2013-10-02 09:23:00,49.0,-99.9,-100.00,West,273,1.0,2.0,-999,-99.99,,,-99.99,,2013-10-02 16:23:00,
2013-10-02 09:43:00,48.0,-99.9,-100.00,SSW,193,2.0,3.0,-999,-99.99,,,-99.99,,2013-10-02 16:43:00,
2013-10-02 09:53:00,47.0,-99.9,-100.00,WSW,242,2.0,3.0,-999,-99.99,,,-99.99,,2013-10-02 16:53:00,
2013-10-02 10:12:00,51.0,-99.9,-100.00,ENE,70,2.0,4.0,-999,-99.99,,,-99.99,,2013-10-02 17:12:00,
2013-10-02 10:23:00,51.0,-99.9,-100.00,ENE,70,2.0,4.0,-999,-99.99,,,-99.99,,2013-10-02 17:23:00,
2013-10-02 10:42:00,49.0,-99.9,-100.00,NE,56,1.0,3.0,-999,-99.99,,,-99.99,,2013-10-02 17:42:00,
2013-10-02 10:53:00,49.0,-99.9,-100.00,NE,56,1.0,3.0,-999,-99.99,,,-99.99,,2013-10-02 17:53:00,
2013-10-02 11:12:00,50.0,-99.9,-100.00,West,266,2.0,2.0,-999,-99.99,,,-99.99,,2013-10-02 18:12:00,
2013-10-02 11:42:00,50.0,-99.9,-100.00,WSW,256,2.0,4.0,-999,-99.99,,,-99.99,,2013-10-02 18:42:00,
2013-10-02 11:52:00,50.0,-99.9,-100.00,WSW,256,2.0,4.0,-999,-99.99,,,-99.99,,2013-10-02 18:52:00,
2013-10-02 12:42:00,51.0,-99.9,-100.00,WNW,283,1.0,5.0,-999,-99.99,,,-99.99,,2013-10-02 19:42:00,
2013-10-02 12:52:00,52.0,-99.9,-100.00,NE,36,0.0,4.0,-999,-99.99,,,-99.99,,2013-10-02 19:52:00,
2013-10-02 13:02:00,52.0,-99.9,-100.00,NE,36,0.0,4.0,-999,-99.99,,,-99.99,,2013-10-02 20:02:00,
2013-10-02 13:22:00,52.0,-99.9,-100.00,NW,314,4.0,5.0,-999,-99.99,,,-99.99,,2013-10-02 20:22:00,
2013-10-02 13:42:00,53.0,-99.9,-100.00,WNW,290,4.0,4.0,-999,-99.99,,,-99.99,,2013-10-02 20:42:00,
2013-10-02 13:52:00,53.0,-99.9,-100.00,WNW,290,4.0,4.0,-999,-99.99,,,-99.99,,2013-10-02 20:52:00,
2013-10-02 13:55:00,56.0,-99.9,-100.00,WSW,238,2.0,5.0,-999,-99.99,,,-99.99,,2013-10-02 20:55:00,
2013-10-02 14:11:00,52.0,-99.9,-100.00,WNW,286,2.0,4.0,-999,-99.99,,,-99.99,,2013-10-02 21:11:00,
2013-10-02 14:44:00,56.0,-99.9,-100.00,WSW,238,2.0,5.0,-999,-99.99,,,-99.99,,2013-10-02 21:44:00,
2013-10-02 15:13:00,57.0,-99.9,-100.00,NNW,338,3.0,4.0,-999,-99.99,,,-99.99,,2013-10-02 22:13:00,
2013-10-02 15:24:00,57.0,-99.9,-100.00,West,268,8.0,14.0,-999,-99.99,,,-99.99,,2013-10-02 22:24:00,
2013-10-02 15:54:00,58.0,-99.9,-100.00,SW,230,6.0,10.0,-999,-99.99,,,-99.99,,2013-10-02 22:54:00,
2013-10-02 16:04:00,58.0,-99.9,-100.00,SW,230,6.0,10.0,-999,-99.99,,,-99.99,,2013-10-02 23:04:00,
2013-10-02 16:42:00,56.0,-99.9,-100.00,West,276,13.0,15.0,-999,-99.99,,,-99.99,,2013-10-02 23:42:00,
2013-10-02 16:52:00,56.0,-99.9,-100.00,West,276,13.0,15.0,-999,-99.99,,,-99.99,,2013-10-02 23:52:00,
2013-10-02 17:12:00,54.0,-99.9,-100.00,West,261,15.0,15.0,-999,-99.99,,,-99.99,,2013-10-03 00:12:00,
2013-10-02 17:42:00,50.0,-99.9,-100.00,SSW,212,10.0,14.0,-999,-99.99,,,-99.99,,2013-10-03 00:42:00,
2013-10-02 17:52:00,50.0,-99.9,-100.00,SSW,212,10.0,14.0,-999,-99.99,,,-99.99,,2013-10-03 00:52:00,
2013-10-02 18:11:00,51.0,-99.9,-100.00,WSW,253,7.0,14.0,-999,-99.99,,,-99.99,,2013-10-03 01:11:00,
2013-10-02 18:23:00,51.0,-99.9,-100.00,SW,220,9.0,10.0,-999,-99.99,,,-99.99,,2013-10-03 01:23:00,
2013-10-02 18:42:00,51.0,-99.9,-100.00,WSW,249,2.0,11.0,-999,-99.99,,,-99.99,,2013-10-03 01:42:00,
2013-10-02 18:52:00,51.0,-99.9,-100.00,WSW,249,2.0,11.0,-999,-99.99,,,-99.99,,2013-10-03 01:52:00,
2013-10-02 19:11:00,53.0,-99.9,-100.00,West,269,6.0,6.0,-999,-99.99,,,-99.99,,2013-10-03 02:11:00,
2013-10-02 19:22:00,53.0,-99.9,-100.00,West,269,6.0,6.0,-999,-99.99,,,-99.99,,2013-10-03 02:22:00,
2013-10-02 19:55:00,51.0,-99.9,-100.00,NW,304,2.0,7.0,-999,-99.99,,,-99.99,,2013-10-03 02:55:00,
2013-10-02 20:11:00,51.0,-99.9,-100.00,West,260,3.0,7.0,-999,-99.99,,,-99.99,,2013-10-03 03:11:00,
2013-10-02 20:45:00,51.0,-99.9,-100.00,NW,304,2.0,7.0,-999,-99.99,,,-99.99,,2013-10-03 03:45:00,
2013-10-02 21:44:00,49.0,-99.9,-100.00,WNW,283,5.0,11.0,-999,-99.99,,,-99.99,,2013-10-03 04:44:00,
2013-10-02 21:53:00,49.0,-99.9,-100.00,WNW,283,5.0,11.0,-999,-99.99,,,-99.99,,2013-10-03 04:53:00,
2013-10-02 22:10:00,49.0,-99.9,-100.00,WSW,244,5.0,10.0,-999,-99.99,,,-99.99,,2013-10-03 05:10:00,
2013-10-02 22:23:00,51.0,-99.9,-100.00,WSW,242,6.0,8.0,-999,-99.99,,,-99.99,,2013-10-03 05:23:00,
2013-10-02 22:44:00,51.0,-99.9,-100.00,WNW,287,4.0,5.0,-999,-99.99,,,-99.99,,2013-10-03 05:44:00,
2013-10-02 22:52:00,49.0,-99.9,-100.00,WSW,244,5.0,10.0,-999,-99.99,,,-99.99,,2013-10-03 05:52:00,
2013-10-02 23:03:00,49.0,-99.9,-100.00,WSW,244,5.0,10.0,-999,-99.99,,,-99.99,,2013-10-03 06:03:00,
2013-10-02 23:42:00,49.0,-99.9,-100.00,WSW,252,8.0,9.0,-999,-99.99,,,-99.99,,2013-10-03 06:42:00,
2013-10-02 23:52:00,49.0,-99.9,-100.00,WSW,252,8.0,9.0,-999,-99.99,,,-99.99,,2013-10-03 06:52:00,